sat.trackr.live / text

‹ back to catalog

GEESAT-4 11

NORAD 65129 · 2025-170L

PAYLOAD ACTIVE UNKNOWN

§ Identity

Operator
Country
PRC
Launch date
2025-08-08
Launch site
YSLA
Launch vehicle
Mass (kg)
RCS (m²)

External: N2YO · Heavens-Above · Gunter

§ Orbital elements

Epoch: 2026-05-24T21:01:15.108384Z

Period
97.04 min
Inclination
49.9847°
Eccentricity
0.0006801
Mean motion
14.83897558 rev/d
Perigee alt
612.3 km
Apogee alt
621.8 km
Semi-major
6,995.2 km
B*
1.9523e-4
RAAN
281.8675°
Arg perigee
0.7648°
Mean anomaly
359.3299°
Rev number
4,297

§ Raw data

GEESAT-4 111 65129U 25170L   26144.87586931  .00001411  00000+0  19523-3 0  99912 65129  49.9847 281.8675 0006801   0.7648 359.3299 14.83897558 42973

JSON: /api/v1/satellites/65129 · /tle

For live sub-satellite position, see the globe view (requires WebGL).

§ Visibility from observer

Set your observer location to see the next 7 days of passes ≥ 10°. The values pass through the URL so the page stays shareable.

No JS? Fill the form by hand. The geolocation button needs JavaScript.